Regional Weather Roundup
Issued by NWS

Home | Current Version | Previous Version | Graphics & Text | Print | Product List | Glossary On
Versions: 1 2 3 4 5 6 7 8 9 10 11 12 13 14 15 16 17 18 19 20 21 22 23 24 25 26 27
000
ASUS45 KPSR 300310
RWRAZ

ARIZONA HOURLY REGIONAL WEATHER ROUNDUP
NATIONAL WEATHER SERVICE PHOENIX AZ
800 PM MST SUN MAY 29 2016

NOTE: FAIR INDICATES FEW OR NO CLOUDS BELOW 12,000 FEET WITH NO
SIGNIFICANT WEATHER AND/OR OBSTRUCTIONS TO VISIBILITY.

AZZ001>003-036-300400-
NORTHWEST ARIZONA

CITY           SKY/WX    TMP DP  RH WIND       PRES   REMARKS
KINGMAN        CLEAR     78  20  11 SW12      29.95R
$$

AZZ004>008-015-016-018-300400-
NORTH CENTRAL ARIZONA

CITY           SKY/WX    TMP DP  RH WIND       PRES   REMARKS
GRAND CANYON   PTCLDY    62  11  13 SW5       30.14R
WILLIAMS       PTCLDY    61   5  11 S9        30.23R
PRESCOTT       CLEAR     70  17  13 SW6       30.06R
FLAGSTAFF      PTCLDY    55  18  23 SW6       30.19R
PAYSON         CLEAR     72  16  12 W6        30.10R
PAGE           CLEAR     80  20  10 W3        29.93R
$$

AZZ009>014-017-300400-
NORTHEAST ARIZONA

CITY           SKY/WX    TMP DP  RH WIND       PRES   REMARKS
WINSLOW        CLEAR     71  13  10 SW10      30.03R
SAINT JOHNS    CLEAR     69  14  12 SW8       30.07R
WINDOW ROCK    CLEAR     62  13  14 S7        30.13R
SHOW LOW       CLEAR     63  10  13 CALM      30.15R
$$

AZZ023-300400-
GREATER PHOENIX AREA

CITY           SKY/WX    TMP DP  RH WIND       PRES   REMARKS
PHOENIX        CLEAR     92  22   8 W15       29.80R
BUCKEYE        CLEAR     82  28  14 SW7       29.84R
LUKE AFB       CLEAR     88  25  10 SW14      29.80R
DEER VALLEY    CLEAR     88  20   8 SW12      29.82R
SCOTTSDALE     CLEAR     89  19   7 W8        29.84R
MESA-FALCON    CLEAR    N/A N/A N/A W13       29.79R
MESA-GATEWAY   CLEAR     90  21   8 SW8         N/A
CHANDLER       CLEAR     90  19   7 W17       29.81R
$$

AZZ027-028-300400-
SOUTHWEST MARICOPA COUNTY AND PINAL COUNTY

CITY           SKY/WX    TMP DP  RH WIND       PRES   REMARKS
CASA GRANDE    CLEAR     88  25  10 W10       29.84S
GILA BEND      FAIR      87  24  10 W10       29.81R
$$

AZZ503-504-507>509-300400-
SOUTHEAST ARIZONA

CITY           SKY/WX    TMP DP  RH WIND       PRES   REMARKS
TUCSON         CLEAR     86  12   6 W9        29.92R
DAVIS-MONTHAN  CLEAR     85  12   6 W7        29.91R
NOGALES        CLEAR     79  38  22 S10       30.02R
SIERRA VISTA   CLEAR     76  33  20 SW13      30.08R
DOUGLAS        CLEAR     79  34  19 SW9       30.03R
SAFFORD        CLEAR     85  13   7 W7        29.89R
$$

AZZ020-021-025-026-031-300400-
SOUTHWEST ARIZONA

CITY           SKY/WX    TMP DP  RH WIND       PRES   REMARKS
YUMA           CLEAR     86  27  11 SW6       29.80R
$$

CAZ031-033-041-043-047-048-061-300400-
SOUTHERN CALIFORNIA

CITY           SKY/WX    TMP DP  RH WIND       PRES   REMARKS
DOWNTOWN L.A.  CLEAR     63  53  70 W5        29.98R
L.A. AIRPORT   PTCLDY    61  53  75 W13       29.99R
SAN DIEGO      MOCLDY    65  55  70 W7        30.00S
BURBANK        CLEAR     62  50  64 S6        29.98R
ONTARIO        PTCLDY    66  51  58 SW13      29.97R
RIVERSIDE      PTCLDY    67  52  58 W12       29.96R
PALM SPRINGS   CLEAR     84  50  30 NW8G20    29.82R
EL CENTRO NAS  CLEAR     85  42  22 E5        29.79R
IMPERIAL       CLEAR     88  36  15 SE8       29.77R
BLYTHE         CLEAR     89  33  13 SW8       29.79R
NEEDLES        CLEAR     90  24   9 SW7       29.80R
$$

NVZ020-UTZ003-300400-
SOUTHERN NEVADA-UTAH

CITY           SKY/WX    TMP DP  RH WIND       PRES   REMARKS
LAS VEGAS      PTCLDY    89  20   8 S7        29.80S
SALT LAKE CITY CLOUDY    68  44  42 S14       30.04R
$$

NMZ009-TXZ055-300400-
NEW MEXICO-WEST TEXAS

CITY           SKY/WX    TMP DP  RH WIND       PRES   REMARKS
ALBUQUERQUE    PTCLDY    78  18  10 S15       30.03R
EL PASO        PTCLDY    84  34  16 S12       30.00R
$$


........................KEY........................
SKY/WX - SKY CONDITION/WEATHER
TMP    - TEMPERATURE IN FAHRENHEIT
DP     - DEW POINT IN FAHRENHEIT
RH     - RELATIVE HUMIDITY IN PERCENT
WIND   - DIRECTION AND SPEED IN MILES PER HOUR (MPH)
VRB    - VARIABLE WIND DIRECTION
PRES   - MEAN SEA LEVEL PRESSURE IN INCHES OF MERCURY
         F - FALLING PRESSURE   R - RISING PRESSURE
         S - STEADY PRESSURE
VSB    - VISIBILITY IN MILES
HX     - HEAT INDEX IN FAHRENHEIT
WCI    - WIND CHILL INDEX IN FAHRENHEIT
TC     - TEMPERATURE IN CELSIUS WHICH IS ALSO KNOWN AS
         TEMPERATURE IN CENTIGRADE
AFB    - AIR FORCE BASE
         LUKE AFB IS LUKE AIR FORCE BASE
         DAVIS-MONTHAN IS DAVIS-MONTHAN AIR FORCE BASE
NAS    - NAVAL AIR STATION
         EL CENTRO NAS IS EL CENTRO NAVAL AIR STATION
N/A    - NOT AVAILABLE





USA.gov is the U.S. government's official web portal to all federal, state and local government web resources and services.